Location: The Saddle
(36.8333°N, 80.3417°W)
Time: 11:30:29
(UTC-04:00)

AO-7 - Visible Passes

Search period start: 25 July 2024 00:00
Search period end: 04 August 2024 00:00
Orbit: 1439 x 1459 km, 102.0° (Epoch: 25 July)

Date Brightness Start Highest point End Pass type
(mag) Time Alt. Az. Time Alt. Az. Time Alt. Az.
25 Jul ? 05:16:57 10° NE 05:21:55 17° E 05:26:51 10° SE visible
27 Jul ? 05:10:31 10° ENE 05:14:42 14° E 05:18:52 10° ESE visible
29 Jul ? 05:04:22 10° ENE 05:07:29 12° E 05:10:35 10° ESE visible
30 Jul ? 05:53:47 10° NE 06:01:03 32° E 06:08:17 10° SSE visible
31 Jul ? 04:59:05 10° E 05:00:15 10° E 05:01:26 10° E visible
01 Aug ? 05:46:55 10° NE 05:53:53 29° E 06:00:49 10° SSE visible
03 Aug ? 05:40:05 10° NE 05:46:43 25° E 05:53:18 10° SSE visible
